St.-Anicet, Quebec

6:40 AM EDT on October 22, 2017 (GMT -0400)
St.-Anicet

Weather History for CWBZ - May, 2013

Change the Weather History Date:

Friday, May 3, 2013

  Actual Average Record
Temperature  
Mean Temperature 64 °F -  
Max Temperature 75 °F - - ()
Min Temperature 52 °F - - ()
Degree Days  
Heating Degree Days 2    
Growing Degree Days 14 (Base 50)    
Moisture  
Dew Point 38 °F    
Average Humidity 42    
Maximum Humidity 77    
Minimum Humidity 16    
Precipitation  
Precipitation 0.00 in - - ()
Sea Level Pressure  
Sea Level Pressure 30.34 in    
Wind  
Wind Speed 8 mph ()    
Max Wind Speed 15 mph    
Max Gust Speed 24 mph    
T = Trace of Precipitation, MM = Missing Value Source: Averaged Metar Reports

Daily Weather History Graph

Daily Weather History Graph

Search for Another Location

Airport or City:

Trip Planner

Search our weather history database for the weather conditions in past years. The results will help you decide how hot, cold, wet, or windy it might be!

Date:

Astronomy

May. 03, 2013 Rise Set
Actual Time 5:42 AM EDT 8:05 PM EDT
Civil Twilight 5:10 AM EDT 8:38 PM EDT
Nautical Twilight 4:29 AM EDT 9:19 PM EDT
Astronomical Twilight 3:43 AM EDT 10:05 PM EDT
Moon 2:23 AM EDT (5/3) 1:41 PM EDT (5/3)
Length of Visible Light 15h 28m
Length of Day
14h 22m
Last Quarter, 37% of the Moon is Illuminated
May 3
Last Quarter
May 9
New
May 18
First Quarter
May 25
Full
May 31
Last Quarter

Hourly Weather History & Observations

Time (EDT) Temp. Dew Point Humidity Pressure Visibility Wind Dir Wind Speed Gust Speed Precip Events Conditions
12:00 AM 61.7 °F 49.8 °F 65% 30.33 in - ENE 10.4 mph - N/A   Unknown
1:00 AM 58.3 °F 49.1 °F 71% 30.34 in - ENE 9.2 mph - N/A   Unknown
2:00 AM 55 °F 48 °F 70% 30.34 in - ENE 10.4 mph - -  
2:00 AM 55.4 °F 47.8 °F 76% 30.34 in - ENE 10.4 mph - N/A   Unknown
3:00 AM 53.8 °F 46.6 °F 77% 30.34 in - ENE 10.4 mph - N/A   Unknown
4:00 AM 53.1 °F 45.5 °F 75% 30.35 in - ENE 6.9 mph - N/A   Unknown
5:00 AM 54.3 °F 42.1 °F 63% 30.37 in - ENE 5.8 mph - N/A   Unknown
6:00 AM 53.1 °F 40.5 °F 62% 30.39 in - ENE 6.9 mph - N/A   Unknown
7:00 AM 54.9 °F 37.9 °F 53% 30.40 in - ENE 6.9 mph - N/A   Unknown
8:00 AM 58 °F 35 °F 30% 30.41 in - ENE 8.1 mph - -  
8:00 AM 57.9 °F 34.9 °F 42% 30.41 in - ENE 8.1 mph - N/A   Unknown
9:00 AM 61.3 °F 35.4 °F 38% 30.41 in - ENE 10.4 mph - N/A   Unknown
10:00 AM 65.3 °F 36.9 °F 35% 30.40 in - East 8.1 mph - N/A   Unknown
11:00 AM 68.9 °F 35.4 °F 29% 30.39 in - ENE 9.2 mph - N/A   Unknown
12:00 PM 71.4 °F 37.4 °F 29% 30.37 in - ENE 12.7 mph 20.7 mph N/A   Unknown
1:00 PM 72.5 °F 37.0 °F 27% 30.35 in - ENE 13.8 mph - N/A   Unknown
2:00 PM 73 °F 37 °F 16% 30.34 in - ENE 15.0 mph - -  
2:00 PM 73.0 °F 36.7 °F 27% 30.34 in - ENE 15.0 mph 24.2 mph N/A   Unknown
3:00 PM 74.5 °F 31.8 °F 21% 30.32 in - ENE 12.7 mph 20.7 mph N/A   Unknown
4:00 PM 74.3 °F 30.6 °F 20% 30.31 in - East 12.7 mph 19.6 mph N/A   Unknown
5:00 PM 73.9 °F 29.8 °F 20% 30.30 in - East 11.5 mph 20.7 mph N/A   Unknown
6:00 PM 73.0 °F 29.1 °F 20% 30.29 in - East 11.5 mph 19.6 mph N/A   Unknown
7:00 PM 71.8 °F 31.3 °F 22% 30.29 in - East 9.2 mph - N/A   Unknown
8:00 PM 67 °F 35 °F 20% 30.29 in - ENE 4.6 mph - -  
8:00 PM 67.1 °F 35.2 °F 31% 30.29 in - ENE 4.6 mph - N/A   Unknown
9:00 PM 63.1 °F 35.1 °F 35% 30.30 in - ENE 5.8 mph - N/A   Unknown
10:00 PM 58.6 °F 37.0 °F 45% 30.30 in - East 3.5 mph - N/A   Unknown
11:00 PM 53.6 °F 37.0 °F 53% 30.30 in - East 3.5 mph - N/A   Unknown